Regional Weather Roundup
Issued by NWS

Home | Current Version | Previous Version | Graphics & Text | Print | Product List | Glossary On
Versions: 1 2 3 4 5 6 7 8 9 10 11 12 13 14 15 16 17 18 19 20 21 22 23 24 25 26 27 28 29 30 31 32 33 34 35 36 37 38 39 40 41 42 43 44 45 46 47 48 49 50
000
ASUS43 KOAX 091810
RWRNE

WEATHER ROUNDUP FOR NEBRASKA
NATIONAL WEATHER SERVICE OMAHA NE
1200 PM CST TUE FEB 09 2016

NOTES: SATELLITE DATA IS BEING USED TO AUGMENT CLOUD COVER ABOVE
       12000 FEET.
       "FAIR" INDICATES FEW OR NO CLOUDS BELOW 12,000 FEET WITH NO
       SIGNIFICANT WEATHER AND/OR OBSTRUCTIONS TO VISIBILITY.

  * THESE STATIONS DO NOT REPORT WEATHER SUCH AS RAIN...SNOW OR FOG.

NEZ001>004-019>022-054>056-091900-
NEBRASKA PANHANDLE

CITY           SKY/WX    TMP DP  RH WIND       PRES   REMARKS
SCOTTSBLUFF    SUNNY     46  29  51 NW15      30.27S
6HR MIN TEMP:  28; 6HR MAX TEMP:  46;

ALLIANCE       CLOUDY    36  31  82 W12       30.24R WCI  28
6HR MIN TEMP:  21; 6HR MAX TEMP:  37;

CHADRON        CLOUDY    44  31  60 W15G24    30.24S
6HR MIN TEMP:  26; 6HR MAX TEMP:  44;

KIMBALL        SUNNY     42  29  58 NW15      30.29S
SIDNEY         PTSUNNY   41  30  65 NW15      30.28R
6HR MIN TEMP:  30; 6HR MAX TEMP:  41;

$$

NEZ057>060-069>072-079>082-091900-
SOUTHWEST NEBRASKA

CITY           SKY/WX    TMP DP  RH WIND       PRES   REMARKS
NORTH PLATTE   CLOUDY    33  20  58 SW3       30.27F
6HR MIN TEMP:  23; 6HR MAX TEMP:  33;

IMPERIAL       CLOUDY    38  26  62 NE3       30.28R
6HR MIN TEMP:  27; 6HR MAX TEMP:  38;

LEXINGTON      CLOUDY    30  19  62 N9        30.31S WCI  22
MCCOOK         CLOUDY    34  21  59 W6        30.31R WCI  29
6HR MIN TEMP:  26; 6HR MAX TEMP:  34;

OGALLALA       CLOUDY    35  26  70 W6        30.26F WCI  30
$$

NEZ005>010-023>029-035>040-094-091900-
NORTH CENTRAL NEBRASKA

CITY           SKY/WX    TMP DP  RH WIND       PRES   REMARKS
VALENTINE      CLOUDY    25  10  53 SE3       30.27F
6HR MIN TEMP:  22; 6HR MAX TEMP:  26; 6HR PCP: TRACE;

AINSWORTH      CLOUDY    26   8  48 E5        30.28S WCI  20
BROKEN BOW     CLOUDY    27  13  55 N9        30.29S WCI  18
6HR MIN TEMP:  26; 6HR MAX TEMP:  28;

O`NEILL        CLOUDY    26  10  50 N7        30.30S WCI  18
ORD            CLOUDY    25  10  53 N13       30.31S WCI  14
6HR MIN TEMP:  23; 6HR MAX TEMP:  26;

THEDFORD       CLOUDY    30  20  66 NE5       30.28S WCI  25
$$

NEZ041-046>049-061>064-073>077-083>087-091900-
SOUTH CENTRAL NEBRASKA

CITY           SKY/WX    TMP DP  RH WIND       PRES   REMARKS
GRAND ISLAND   CLOUDY    24  11  57 N20       30.33R WCI  10
6HR MIN TEMP:  20; 6HR MAX TEMP:  24;

AURORA         CLOUDY    26  11  53 N20       30.32R WCI  12
HASTINGS       CLOUDY    26  10  50 N18       30.32R WCI  13
6HR MIN TEMP:  21; 6HR MAX TEMP:  26;

HEBRON         SUNNY     26  12  57 N18G28    30.32S WCI  12
HOLDREGE       CLOUDY    28  17  63 N17       30.31R WCI  16
YORK           SUNNY     25  10  54 N21G26    30.30S WCI  10
$$

NEZ011>018-030>034-042>045-091900-
NORTHEAST NEBRASKA

CITY           SKY/WX    TMP DP  RH WIND       PRES   REMARKS
NORFOLK        SUNNY     23  10  57 N20       30.27S WCI   8
6HR MIN TEMP:  14; 6HR MAX TEMP:  23;

ALBION         MOSUNNY   25   8  50 N14G22    30.30R WCI  13
BLAIR          SUNNY     17   6  60 N16G29    30.26F WCI   2
COLUMBUS *     SUNNY     21   3  45 N17       30.31R WCI   7
FREMONT        SUNNY     18   5  55 NW12G20   30.30S WCI   6
TEKAMAH        SUNNY     23   5  46 N21       30.29R WCI   8
6HR MIN TEMP:  13; 6HR MAX TEMP:  23;

WAYNE          SUNNY     19   8  62 N13       30.28F WCI   5
$$

NEZ050>053-065>068-078-088>093-091900-
SOUTHEAST NEBRASKA

CITY           SKY/WX    TMP DP  RH WIND       PRES   REMARKS
LINCOLN        SUNNY     22   8  55 N18G29    30.32R WCI   7
6HR MIN TEMP:  17; 6HR MAX TEMP:  22;

OMAHA EPPLEY   MOSUNNY   18   6  59 N21G31    30.28S WCI   1
6HR MIN TEMP:  13; 6HR MAX TEMP:  18;

BEATRICE       SUNNY     24   8  50 N24G30    30.30F WCI   8
FALLS CITY     SUNNY     23   6  48 NW22G32   30.26R WCI   8
6HR MIN TEMP:  16; 6HR MAX TEMP:  24;

NEBRASKA CITY  SUNNY     20   6  53 N20G31    30.27R WCI   5
PLATTSMOUTH    SUNNY     18   5  55 NW18G25   30.27R WCI   3
$$

NEZ044-045-051>053-067-091900-
OMAHA AREA

CITY           SKY/WX    TMP DP  RH WIND       PRES   REMARKS
OMAHA EPPLEY   MOSUNNY   18   6  59 N21G31    30.28S WCI   1
6HR MIN TEMP:  13; 6HR MAX TEMP:  18;

BLAIR          SUNNY     17   6  60 N16G29    30.26F WCI   2
FREMONT        SUNNY     18   5  55 NW12G20   30.30S WCI   6
MILLARD        SUNNY     19   5  55 N13G21    30.29F WCI   6
OFFUTT AFB     MOSUNNY   19   4  51 NW15      30.27S WCI   5
PLATTSMOUTH    SUNNY     18   5  55 NW18G25   30.27R WCI   3
WAHOO          FAIR      19   7  60 N21       30.29S WCI   3
$$



USA.gov is the U.S. government's official web portal to all federal, state and local government web resources and services.